Location: Saint-Palais-sur-Mer
(45.6429°N, 1.0859°W)
Time: 00:50:12
(UTC+01:00)

Tiros 1 despin weight - Pass Details

Date: 09 February 2026
Orbit: 556 x 593 km, 48.2° (Epoch: 13 March)

Event Time Altitude Azimuth Distance (km) Brightness Sun altitude
Rises 21:03:52 0° 260° (W) 2,728 ? -28.6°
Reaches altitude 10° 21:06:07 10° 263° (W) 1,837 ? -29.0°
Enters shadow 21:08:33 33° 271° (W) 940 ? -29.4°
Maximum altitude 21:10:18 71° 348° (NNW) 592 - -29.7°
Drops below altitude 10° 21:14:32 10° 73° (ENE) 1,854 - -30.4°
Sets 21:16:48 0° 75° (ENE) 2,756 - -30.8°
